Weather History for Fryeburg, ME

Change the Weather History Date:

Monday, December 23, 2013

  Actual Average Record
Temperature  
Mean Temperature 30 °F -  
Max Temperature 33 °F 31 °F 55 °F (2004)
Min Temperature 26 °F 10 °F -11 °F (2008)
Degree Days  
Heating Degree Days 36    
Moisture  
Dew Point 28 °F    
Average Humidity 94    
Maximum Humidity 100    
Minimum Humidity 82    
Precipitation  
Precipitation 0.14 in - - ()
Sea Level Pressure  
Sea Level Pressure 30.05 in    
Wind  
Wind Speed 1 mph (NNE)    
Max Wind Speed 8 mph    
Max Gust Speed -    
Visibility 6 miles    
Events Rain    
Averages and records for this station are not official NWS values.
T = Trace of Precipitation, MM = Missing Value Source: NWS Daily Summary

Daily Weather History Graph

Daily Weather History Graph

Search for Another Location

Airport:

Trip Planner

Search our weather history database for the weather conditions in past years. The results will help you decide how hot, cold, wet, or windy it might be!

Date:

Astronomy

Dec. 23, 2013 Rise Set
Actual Time 7:16 AM EST 4:09 PM EST
Civil Twilight 6:43 AM EST 4:42 PM EST
Nautical Twilight 6:06 AM EST 5:19 PM EST
Astronomical Twilight 5:31 AM EST 5:54 PM EST
Moon 10:28 PM EST (12/23) 10:29 AM EST (12/23)
Length of Visible Light 9h 59m
Length of Day
8h 53m
Waning Gibbous, 68% of the Moon is Illuminated
Dec 23
Waning Gibbous
Dec 25
Last Quarter
Jan 1
New
Jan 7
First Quarter
Jan 15
Full

Hourly Weather History & Observations

Time (EST) Temp. Windchill Dew Point Humidity Pressure Visibility Wind Dir Wind Speed Gust Speed Precip Events Conditions
12:18 AM 27.0 °F 23.0 °F 26.1 °F 96% 30.07 in 3.0 mi NNE 3.5 mph - N/A   Overcast
12:28 AM 27.0 °F - 26.1 °F 96% 30.07 in 3.0 mi Calm Calm - N/A   Overcast
12:54 AM 27.0 °F 21.6 °F 25.0 °F 92% 30.07 in 3.0 mi NE 4.6 mph - N/A   Overcast
1:08 AM 27.0 °F 23.0 °F 25.0 °F 92% 30.05 in 5.0 mi NE 3.5 mph - N/A   Overcast
1:19 AM 27.0 °F 21.6 °F 25.0 °F 92% 30.05 in 10.0 mi NNE 4.6 mph - N/A   Overcast
1:40 AM 27.0 °F - 26.1 °F 96% 30.05 in 7.0 mi Calm Calm - N/A   Overcast
1:54 AM 27.0 °F - 25.0 °F 92% 30.07 in 7.0 mi Calm Calm - N/A   Overcast
2:54 AM 27.0 °F 23.0 °F 26.1 °F 96% 30.09 in 5.0 mi NE 3.5 mph - N/A   Overcast
3:49 AM 26.6 °F - 26.6 °F 100% 30.07 in 5.0 mi Calm Calm - N/A   Overcast
3:54 AM 27.0 °F - 26.1 °F 96% 30.09 in 5.0 mi Calm Calm - N/A   Overcast
4:14 AM 27.0 °F - 25.0 °F 92% 30.07 in 10.0 mi Calm Calm - N/A   Overcast
4:54 AM 27.0 °F - 25.0 °F 92% 30.09 in 6.0 mi Calm Calm - N/A   Overcast
5:11 AM 27.0 °F - 26.1 °F 96% 30.07 in 3.0 mi Calm Calm - N/A   Overcast
5:29 AM 27.0 °F - 26.1 °F 96% 30.08 in 2.5 mi Calm Calm - N/A   Overcast
5:36 AM 27.0 °F - 26.1 °F 96% 30.08 in 4.0 mi Calm Calm - N/A   Overcast
5:54 AM 27.0 °F - 26.1 °F 96% 30.11 in 4.0 mi Calm Calm - N/A   Overcast
6:16 AM 27.0 °F - 26.1 °F 96% 30.07 in 2.5 mi Calm Calm - N/A   Overcast
6:43 AM 27.0 °F - 26.1 °F 96% 30.05 in 2.5 mi Calm Calm - 0.00 in Rain Light Freezing Rain
6:48 AM 26.6 °F - 26.6 °F 100% 30.06 in 2.5 mi Calm Calm - 0.00 in   Overcast
6:54 AM 27.0 °F - 26.1 °F 96% 30.08 in 3.0 mi Calm Calm - 0.00 in   Overcast
7:33 AM 28.0 °F - 26.1 °F 92% 30.07 in 3.0 mi Calm Calm - 0.00 in   Overcast
7:42 AM 28.0 °F 24.2 °F 26.1 °F 92% 30.07 in 2.5 mi North 3.5 mph - 0.00 in Rain Light Freezing Rain
7:50 AM 28.4 °F 24.6 °F 26.6 °F 93% 30.06 in 3.0 mi North 3.5 mph - 0.00 in Rain Light Freezing Rain
7:51 AM 28.4 °F - 26.6 °F 93% 30.06 in 3.0 mi Calm Calm - 0.00 in   Overcast
7:54 AM 28.0 °F 24.2 °F 26.1 °F 92% 30.09 in 3.0 mi North 3.5 mph - 0.00 in   Overcast
7:59 AM 28.0 °F 22.8 °F 26.1 °F 92% 30.07 in 2.5 mi NNW 4.6 mph - N/A   Overcast
8:06 AM 28.0 °F - 27.0 °F 96% 30.06 in 2.5 mi Calm Calm - 0.00 in Rain Light Freezing Rain
8:18 AM 28.0 °F - 27.0 °F 96% 30.08 in 4.0 mi Calm Calm - 0.01 in   Overcast
8:50 AM 28.4 °F - 26.6 °F 93% 30.08 in 9.0 mi Calm Calm - 0.01 in Rain Light Freezing Rain
8:54 AM 28.9 °F - 27.0 °F 92% 30.10 in 9.0 mi Calm Calm - 0.01 in Rain Light Freezing Rain
9:17 AM 28.9 °F - 27.0 °F 92% 30.08 in 10.0 mi Calm Calm - 0.00 in   Overcast
9:29 AM 28.9 °F - 28.0 °F 96% 30.08 in 9.0 mi Calm Calm - 0.01 in Rain Light Freezing Rain
9:44 AM 30.0 °F - 27.0 °F 88% 30.10 in 5.0 mi Calm Calm - 0.02 in Rain Light Freezing Rain
9:52 AM 30.2 °F - 26.6 °F 86% 30.09 in 3.0 mi Calm Calm - 0.03 in Rain Light Freezing Rain
9:54 AM 30.0 °F - 27.0 °F 88% 30.11 in 4.0 mi Calm Calm - 0.03 in Rain Light Freezing Rain
10:02 AM 30.0 °F - 28.0 °F 92% 30.07 in 9.0 mi Calm Calm - 0.00 in Rain Light Freezing Rain
10:54 AM 30.0 °F - 28.0 °F 92% 30.05 in 9.0 mi Calm Calm - 0.03 in Rain Light Freezing Rain
11:26 AM 30.9 °F - 28.9 °F 92% 30.01 in 10.0 mi Calm Calm - 0.01 in   Overcast
11:54 AM 30.9 °F - 28.9 °F 92% 30.04 in 6.0 mi Calm Calm - 0.01 in   Overcast
11:57 AM 30.9 °F - 28.9 °F 92% 30.02 in 4.0 mi Calm Calm - 0.00 in Rain Light Freezing Rain
12:07 PM 30.9 °F - 28.9 °F 92% 30.01 in 2.0 mi Calm Calm - 0.00 in Rain Light Freezing Rain
12:21 PM 30.9 °F - 28.9 °F 92% 30.00 in 3.0 mi Calm Calm - 0.01 in Rain Light Freezing Rain
12:35 PM 30.9 °F - 28.9 °F 92% 30.00 in 2.5 mi Calm Calm - 0.01 in   Overcast
12:41 PM 30.9 °F - 30.0 °F 96% 30.01 in 3.0 mi Calm Calm - 0.01 in   Overcast
12:54 PM 32.0 °F - 30.0 °F 92% 30.02 in 5.0 mi Calm Calm - 0.02 in   Overcast
1:02 PM 32.0 °F - 30.0 °F 92% 30.00 in 7.0 mi Calm Calm - N/A   Overcast
1:54 PM 32.0 °F - 30.0 °F 92% 30.01 in 5.0 mi Calm Calm - 0.00 in   Overcast
2:10 PM 32.0 °F - 30.0 °F 92% 29.99 in 2.5 mi Calm Calm - 0.01 in   Overcast
2:14 PM 32.0 °F - 30.9 °F 96% 29.99 in 3.0 mi Calm Calm - 0.01 in   Overcast
2:33 PM 32.0 °F - 30.0 °F 92% 30.00 in 6.0 mi Calm Calm - 0.02 in   Overcast
2:54 PM 32.0 °F - 30.9 °F 96% 30.01 in 9.0 mi Calm Calm - 0.02 in   Overcast
3:54 PM 32.0 °F - 30.9 °F 96% 29.99 in 8.0 mi Calm Calm - 0.01 in   Overcast
4:09 PM 32.0 °F - 30.9 °F 96% 29.97 in 6.0 mi Calm Calm - 0.01 in   Overcast
4:27 PM 32.0 °F - 30.9 °F 96% 29.96 in 10.0 mi Calm Calm - 0.01 in   Overcast
4:40 PM 32.0 °F - 30.9 °F 96% 29.98 in 10.0 mi Calm Calm - 0.01 in   Overcast
4:54 PM 32.0 °F - 30.9 °F 96% 29.99 in 10.0 mi Calm Calm - 0.01 in   Overcast
5:39 PM 32.0 °F - 30.9 °F 96% 29.98 in 10.0 mi Calm Calm - N/A   Overcast
5:54 PM 33.1 °F - 30.9 °F 92% 30.02 in 10.0 mi Calm Calm - 0.00 in   Overcast
6:11 PM 33.1 °F - 30.9 °F 92% 30.00 in 9.0 mi Calm Calm - 0.00 in   Overcast
6:28 PM 33.1 °F - 32.0 °F 96% 30.01 in 7.0 mi Calm Calm - 0.00 in Rain Light Rain
6:54 PM 33.1 °F - 30.9 °F 92% 30.03 in 6.0 mi Calm Calm - 0.00 in   Overcast
7:54 PM 33.1 °F - 32.0 °F 96% 30.05 in 6.0 mi Calm Calm - 0.00 in   Overcast
8:54 PM 32.0 °F - 32.0 °F 100% 30.07 in 3.0 mi Calm Calm - N/A   Overcast
9:02 PM 33.1 °F 30.0 °F 30.9 °F 92% 30.05 in 2.5 mi East 3.5 mph - N/A   Overcast
9:15 PM 32.0 °F - 30.9 °F 96% 30.05 in 3.0 mi Calm Calm - N/A   Overcast
9:26 PM 32.0 °F - 30.9 °F 96% 30.04 in 4.0 mi Calm Calm - N/A   Overcast
9:54 PM 32.0 °F - 30.9 °F 96% 30.06 in 6.0 mi Calm Calm - N/A   Overcast
10:54 PM 32.0 °F - 30.0 °F 92% 30.08 in 6.0 mi Calm Calm - N/A   Mostly Cloudy
11:54 PM 33.1 °F 26.1 °F 28.0 °F 82% 30.08 in 10.0 mi West 8.1 mph - N/A   Partly Cloudy